CW8630 Weather Reports


time (UTC)temp
F
wind
direction
speed
knots
gust
knots
rain 1hr
in
rain 24hr
in
rain mn
in
humidity
%
barometer
mb
20260906130953 68 321 1.7 4.3 0.00 0.00 0.00 100 1019.4
20260906130447 68 56 1.7 4.3 0.00 0.00 0.00 100 1019.4
20260906125941 68 41 1.7 4.3 0.00 0.00 0.00 100 1019.2
20260906125436 68 90 0.9 3.5 0.00 0.00 0.00 100 1019.4
20260906124930 68 77 0.9 3.5 0.00 0.00 0.00 100 1019.1
20260906124424 67 136 0.9 3.5 0.00 0.00 0.00 100 1019.1
20260906123918 67 46 0.9 3.5 0.00 0.00 0.00 100 1019.0
20260906123411 67 46 0.9 3.5 0.00 0.00 0.00 100 1019.1
20260906122905 67 20 0.9 3.5 0.00 0.00 0.00 100 1019.0
20260906122405 67 136 0.9 3.5 0.00 0.00 0.00 100 1019.1
20260906121905 67 46 0.9 2.6 0.00 0.00 0.00 100 1019.1
20260906121405 67 56 0.9 3.5 0.00 0.00 0.00 100 1019.1
20260906120906 67 35 1.7 5.2 0.00 0.00 0.00 100 1019.0
20260906115904 67 124 0.9 4.3 0.00 0.00 0.00 100 1018.9
20260906115405 67 23 0.9 3.5 0.00 0.00 0.00 100 1018.8
20260906114904 67 72 1.7 4.3 0.00 0.00 0.00 100 1018.7
20260906114404 67 56 1.7 4.3 0.00 0.00 0.00 100 1018.4
20260906113906 67 51 0.9 4.3 0.00 0.00 0.00 100 1018.3
20260906113404 67 54 0.9 4.3 0.00 0.00 0.00 100 1018.2
20260906112905 67 37 1.7 4.3 0.00 0.00 0.00 100 1018.2
20260906111905 67 35 1.7 6.1 0.00 0.00 0.00 100 1018.2
20260906111406 66 124 0.9 5.2 0.00 0.00 0.00 100 1018.2
20260906110905 66 28 0.9 4.3 0.00 0.00 0.00 100 1018.2
20260906110406 66 51 1.7 5.2 0.00 0.00 0.00 100 1018.0
20260906105906 66 33 1.7 5.2 0.00 0.00 0.00 100 1018.0
20260906104906 66 223 2.6 5.2 0.00 0.00 0.00 99 1018.0
20260906104405 66 46 2.6 6.1 0.00 0.00 0.00 99 1017.9
20260906103903 66 28 2.6 7.8 0.00 0.00 0.00 99 1018.0
20260906103404 66 51 2.6 7.8 0.00 0.00 0.00 99 1017.9
20260906102904 66 51 1.7 5.2 0.00 0.00 0.00 99 1017.7
20260906102405 66 28 1.7 5.2 0.00 0.00 0.00 99 1017.7
20260906101905 66 46 1.7 6.1 0.00 0.00 0.00 99 1017.7
20260906101405 66 46 1.7 6.1 0.00 0.00 0.00 99 1017.7
20260906100404 66 46 2.6 5.2 0.00 0.00 0.00 99 1017.6
20260906095904 66 28 2.6 7.0 0.00 0.00 0.00 99 1017.6
20260906095406 66 32 2.6 7.0 0.00 0.00 0.00 98 1017.7
20260906094904 66 35 2.6 7.0 0.00 0.00 0.00 98 1017.6
20260906094402 66 41 1.7 5.2 0.00 0.00 0.00 98 1017.4
20260906093903 66 35 1.7 5.2 0.00 0.00 0.00 98 1017.4
20260906093357 66 346 2.6 6.1 0.00 0.00 0.00 98 1017.5
20260906092850 66 28 2.6 6.1 0.00 0.00 0.00 98 1017.5
20260906092345 66 28 1.7 6.1 0.00 0.00 0.00 98 1017.4
20260906091838 66 39 2.6 5.2 0.00 0.00 0.00 98 1017.5
20260906090828 66 46 2.6 6.1 0.00 0.00 0.00 98 1017.4
20260906085815 66 27 2.6 6.1 0.00 0.00 0.00 98 1017.4
20260906085309 67 6 1.7 5.2 0.00 0.00 0.00 97 1017.4
20260906084802 67 46 1.7 5.2 0.00 0.00 0.00 97 1017.4
20260906084256 67 20 1.7 5.2 0.00 0.00 0.00 97 1017.4
20260906083750 67 46 1.7 5.2 0.00 0.00 0.00 97 1017.3
20260906083245 67 39 2.6 5.2 0.00 0.00 0.00 97 1017.4
20260906082739 67 39 2.6 5.2 0.00 0.00 0.00 97 1017.4
20260906082233 67 54 1.7 4.3 0.00 0.00 0.00 97 1017.3
20260906081726 67 46 1.7 4.3 0.00 0.00 0.00 97 1017.4
20260906080715 67 46 1.7 5.2 0.00 0.00 0.00 97 1017.5
20260906080208 67 39 1.7 3.5 0.00 0.00 0.00 96 1017.4
20260906075156 68 21 2.6 6.1 0.00 0.00 0.00 96 1017.5
20260906074651 68 41 2.6 7.0 0.00 0.00 0.00 96 1017.6
20260906074144 68 42 1.7 7.0 0.00 0.00 0.00 96 1017.6
20260906073639 68 46 1.7 4.3 0.00 0.00 0.00 96 1017.6
20260906073132 68 136 1.7 5.2 0.00 0.00 0.00 96 1017.5
20260906072627 68 28 1.7 6.1 0.00 0.00 0.00 96 1017.6
20260906072121 68 46 1.7 6.1 0.00 0.00 0.00 96 1017.6
20260906071615 68 136 1.7 5.2 0.00 0.00 0.00 95 1017.6
20260906071109 69 30 1.7 5.2 0.00 0.00 0.00 96 1017.6
20260906070603 69 23 1.7 4.3 0.00 0.00 0.00 96 1017.6
20260906070056 69 20 1.7 5.2 0.00 0.00 0.00 96 1017.6
20260906065550 69 28 1.7 5.2 0.00 0.00 0.00 95 1017.6
20260906065044 69 30 1.7 6.1 0.00 0.00 0.00 95 1017.6
20260906064539 69 30 1.7 6.1 0.00 0.00 0.00 95 1017.6
20260906064033 69 46 1.7 6.1 0.00 0.00 0.00 95 1017.6
20260906063526 69 56 2.6 6.1 0.00 0.00 0.00 95 1017.7
20260906063020 69 28 1.7 6.1 0.00 0.00 0.00 95 1017.6
20260906062521 69 33 1.7 4.3 0.00 0.00 0.00 95 1017.6
20260906062021 69 23 1.7 6.1 0.00 0.00 0.00 95 1017.6
20260906061521 69 328 1.7 6.1 0.00 0.00 0.00 95 1017.7
20260906061021 69 18 1.7 5.2 0.00 0.00 0.00 95 1017.7
20260906060521 69 179 1.7 5.2 0.00 0.00 0.00 94 1017.6
20260906060020 69 63 1.7 5.2 0.00 0.00 0.00 94 1017.6
20260906055519 69 40 1.7 6.1 0.00 0.00 0.00 94 1017.6
20260906055021 69 146 1.7 6.1 0.00 0.00 0.00 94 1017.6
20260906054519 69 25 1.7 7.0 0.00 0.00 0.00 94 1017.6
20260906054018 69 46 1.7 7.8 0.00 0.00 0.00 94 1017.6
20260906053518 70 75 1.7 7.8 0.00 0.00 0.00 94 1017.6
20260906053018 70 90 1.7 5.2 0.00 0.00 0.00 94 1017.6
20260906052518 70 13 1.7 5.2 0.00 0.00 0.00 94 1017.6
20260906052019 70 82 1.7 3.5 0.00 0.00 0.00 94 1017.5
20260906051518 70 60 1.7 3.5 0.00 0.00 0.00 94 1017.5
20260906051017 70 32 1.7 5.2 0.00 0.00 0.00 94 1017.4
20260906050516 70 20 1.7 5.2 0.00 0.00 0.00 94 1017.3
20260906050010 70 136 1.7 5.2 0.00 0.00 0.00 94 1017.3
20260906045503 70 161 1.7 5.2 0.00 0.00 0.00 94 1017.3
20260906044957 70 46 1.7 5.2 0.00 0.00 0.00 94 1017.2
20260906044451 70 56 1.7 5.2 0.00 0.00 0.00 93 1017.2
20260906043945 70 37 1.7 5.2 0.00 0.00 0.00 93 1017.2
20260906042934 70 328 2.6 7.8 0.00 0.00 0.00 93 1017.2
20260906042427 70 23 1.7 6.1 0.00 0.00 0.00 93 1017.1
20260906041922 70 35 1.7 4.3 0.00 0.00 0.00 93 1017.0
20260906040909 70 42 1.7 4.3 0.00 0.00 0.00 93 1017.0
20260906035858 70 117 0.9 2.6 0.00 0.00 0.00 93 1016.9
20260906035351 70 296 0.9 3.5 0.00 0.00 0.00 92 1016.8
20260906034845 70 105 1.7 3.5 0.00 0.00 0.00 92 1016.8
20260906032315 71 25 0.9 3.5 0.00 0.00 0.00 92 1016.5
20260906031809 71 63 0.9 3.5 0.00 0.00 0.00 92 1016.4
20260906031303 71 105 1.7 2.6 0.00 0.00 0.00 91 1016.4
20260906030758 71 1 1.7 4.3 0.00 0.00 0.00 91 1016.4
20260906030251 71 121 1.7 4.3 0.00 0.00 0.00 91 1016.3
20260906025746 71 68 1.7 4.3 0.00 0.00 0.00 91 1016.4
20260906025246 71 78 1.7 4.3 0.00 0.00 0.00 91 1016.3
20260906024746 71 46 1.7 4.3 0.00 0.00 0.00 91 1016.3
20260906024246 71 20 1.7 5.2 0.00 0.00 0.00 91 1016.3
20260906023745 71 97 1.7 5.2 0.00 0.00 0.00 91 1016.2
20260906023245 71 46 1.7 4.3 0.00 0.00 0.00 91 1016.2
20260906022745 71 42 1.7 6.1 0.00 0.00 0.00 91 1016.2
20260906022246 71 66 2.6 6.1 0.00 0.00 0.00 90 1016.2
20260906021743 71 35 2.6 6.1 0.00 0.00 0.00 90 1016.2
20260906020739 71 139 2.6 5.2 0.00 0.00 0.00 91 1016.1
20260906020239 71 56 1.7 5.2 0.00 0.00 0.00 91 1016.2
20260906015738 71 59 1.7 6.1 0.00 0.00 0.00 91 1016.3
20260906014738 71 46 1.7 6.1 0.00 0.00 0.00 92 1016.3
20260906014239 71 56 1.7 6.1 0.00 0.00 0.00 92 1016.2
20260906013738 72 82 1.7 5.2 0.00 0.00 0.00 92 1016.2
20260906013240 72 90 0.9 3.5 0.00 0.00 0.00 92 1016.2
20260906012734 72 90 1.7 4.3 0.00 0.00 0.00 91 1016.1
20260906012232 72 331 1.7 4.3 0.00 0.00 0.00 91 1016.2
20260906011733 72 56 2.6 6.1 0.00 0.00 0.00 91 1016.2
20260906011232 72 124 2.6 7.0 0.00 0.00 0.00 90 1016.2
20260906010733 73 90 2.6 8.7 0.00 0.00 0.00 90 1016.1
20260906010232 73 90 1.7 8.7 0.00 0.00 0.00 89 1016.1
20260906005734 73 49 1.7 7.0 0.00 0.00 0.00 89 1016.0
20260906005232 73 54 1.7 5.2 0.00 0.00 0.00 88 1016.0
20260906004732 74 68 1.7 6.1 0.00 0.00 0.00 88 1015.9
20260906004233 74 90 1.7 7.0 0.00 0.00 0.00 87 1015.8
20260906003728 74 46 1.7 7.0 0.00 0.00 0.00 87 1015.9
20260906003229 74 30 2.6 6.1 0.00 0.00 0.00 87 1015.9
20260906002728 75 46 1.7 6.1 0.00 0.00 0.00 87 1015.7
20260906002229 75 1 2.6 8.7 0.00 0.00 0.00 87 1015.7
20260906001728 75 49 2.6 8.7 0.00 0.00 0.00 86 1015.8
20260906001228 76 51 2.6 7.8 0.00 0.00 0.00 86 1015.7
20260906000229 77 33 2.6 8.7 0.00 0.00 0.00 86 1015.5
20260905235729 77 59 2.6 8.7 0.00 0.00 0.00 85 1015.5
20260905235223 78 49 2.6 7.0 0.00 0.00 0.00 84 1015.5
20260905234717 78 54 2.6 7.0 0.00 0.00 0.00 84 1015.4
20260905234210 78 44 2.6 6.1 0.00 0.00 0.00 83 1015.4
20260905233158 79 58 2.6 9.6 0.00 0.00 0.00 81 1015.2
20260905232147 80 60 2.6 9.6 0.00 0.00 0.00 80 1014.9
20260905231640 80 56 2.6 9.6 0.00 0.00 0.00 80 1014.9
20260905231134 80 72 1.7 7.0 0.00 0.00 0.00 80 1014.9
20260905230123 80 28 1.7 9.6 0.00 0.00 0.00 78 1014.9
20260905225617 81 102 2.6 12.2 0.00 0.00 0.00 78 1014.9
20260905225110 81 202 4.3 13.0 0.00 0.00 0.00 77 1014.8
20260905224604 81 20 5.2 13.0 0.00 0.00 0.00 76 1014.9
20260905224058 82 27 3.5 10.4 0.00 0.00 0.00 76 1014.7
20260905223552 82 27 3.5 8.7 0.00 0.00 0.00 75 1014.6
20260905223046 82 49 4.3 9.6 0.00 0.00 0.00 75 1014.5
20260905222541 82 16 4.3 9.6 0.00 0.00 0.00 75 1014.5
20260905222034 82 1 4.3 9.6 0.00 0.00 0.00 75 1014.5
20260905221528 81 25 4.3 11.3 0.00 0.00 0.00 76 1014.6
20260905221023 81 30 4.3 13.9 0.00 0.00 0.00 77 1014.6
20260905220516 81 90 3.5 13.9 0.00 0.00 0.00 76 1014.4
20260905220010 81 210 2.6 9.6 0.00 0.00 0.00 77 1014.5
20260905215505 81 33 2.6 9.6 0.00 0.00 0.00 78 1014.5
20260905214958 81 28 2.6 7.8 0.00 0.00 0.00 81 1014.5
20260905214453 81 11 2.6 9.6 0.00 0.00 0.00 80 1014.5
20260905213947 81 46 2.6 9.6 0.00 0.00 0.00 80 1014.5
20260905212934 80 323 3.5 8.7 0.00 0.00 0.00 81 1014.5
20260905212428 80 20 2.6 7.8 0.00 0.00 0.00 82 1014.5
20260905211922 80 28 2.6 7.8 0.00 0.00 0.00 82 1014.7
20260905211416 80 108 2.6 7.8 0.00 0.00 0.00 83 1014.7
20260905210405 79 117 3.5 9.6 0.00 0.00 0.00 83 1014.8
20260905205858 79 37 3.5 9.6 0.00 0.00 0.00 83 1014.7
20260905205352 78 30 2.6 9.6 0.00 0.00 0.00 84 1014.8
20260905204846 78 72 2.6 7.0 0.00 0.00 0.00 85 1014.9
20260905204340 78 72 2.6 6.1 0.00 0.00 0.00 85 1015.0
20260905203834 78 72 2.6 6.1 0.00 0.00 0.00 86 1015.1
20260905202822 78 28 1.7 5.2 0.00 0.00 0.00 87 1015.0
20260905202317 78 6 2.6 6.1 0.00 0.00 0.00 87 1015.1
20260905201810 78 11 2.6 7.0 0.00 0.00 0.00 87 1015.2
20260905201304 78 114 2.6 7.0 0.00 0.00 0.00 86 1015.4
20260905200800 78 114 3.5 9.6 0.00 0.00 0.00 86 1015.2
20260905195752 78 122 3.5 12.2 0.00 0.00 0.00 86 1015.1
20260905195253 78 18 5.2 12.2 0.00 0.00 0.00 86 1015.2
20260905194753 78 37 3.5 12.2 0.00 0.00 0.00 86 1015.1
20260905194251 78 25 3.5 7.8 0.00 0.00 0.00 86 1015.0
20260905193253 79 87 2.6 7.0 0.00 0.00 0.00 85 1015.1
20260905192753 80 27 2.6 7.0 0.00 0.00 0.00 85 1015.1
20260905192250 80 60 3.5 10.4 0.00 0.00 0.00 84 1015.0
20260905191747 80 90 4.3 13.9 0.00 0.00 0.00 83 1015.0
20260905191247 81 340 3.5 13.9 0.00 0.00 0.00 83 1015.0
20260905190747 81 34 2.6 10.4 0.00 0.00 0.00 82 1014.9
20260905190247 81 63 3.5 10.4 0.00 0.00 0.00 82 1015.0
20260905185747 81 30 3.5 9.6 0.00 0.00 0.00 82 1015.1
20260905185249 81 13 3.5 10.4 0.00 0.00 0.00 82 1015.1
20260905184748 81 32 4.3 11.3 0.00 0.00 0.00 83 1015.1
20260905184246 81 58 6.1 13.0 0.00 0.00 0.00 82 1015.1
20260905183744 81 25 6.1 13.0 0.00 0.00 0.00 82 1015.2
20260905182739 81 172 3.5 9.6 0.00 0.00 0.00 84 1015.2
20260905182240 81 40 3.5 12.2 0.00 0.00 0.00 84 1015.2
20260905181739 81 161 4.3 12.2 0.00 0.00 0.00 83 1015.4
20260905181239 81 146 5.2 13.9 0.00 0.00 0.00 84 1015.2
20260905180739 80 37 5.2 13.9 0.00 0.00 0.00 85 1015.2
20260905180239 80 46 5.2 13.0 0.00 0.00 0.00 85 1015.2
20260905175740 80 47 5.2 13.0 0.00 0.00 0.00 85 1015.1
20260905175239 80 20 3.5 11.3 0.00 0.00 0.00 85 1015.1
20260905174740 80 42 2.6 13.0 0.00 0.00 0.00 85 1015.1
20260905174234 81 27 3.5 13.0 0.00 0.00 0.00 85 1015.2
20260905173234 81 82 2.6 9.6 0.00 0.00 0.00 84 1015.1
20260905171234 80 33 5.2 11.3 0.00 0.00 0.00 87 1015.4
20260905170734 80 46 4.3 9.6 0.00 0.00 0.00 88 1015.4
20260905170232 80 25 3.5 9.6 0.00 0.00 0.00 88 1015.2
20260905165729 80 53 2.6 9.6 0.00 0.00 0.00 89 1015.2
20260905165230 79 32 2.6 7.8 0.00 0.00 0.00 90 1015.2
20260905164723 79 42 2.6 7.8 0.00 0.00 0.00 90 1015.5
20260905164217 79 63 2.6 7.0 0.00 0.00 0.00 91 1015.5
20260905163711 78 1 4.3 8.7 0.00 0.00 0.00 91 1015.4
20260905162153 77 30 2.6 7.0 0.00 0.00 0.00 92 1015.4
20260905161648 77 331 3.5 9.6 0.00 0.00 0.00 93 1015.5
20260905161141 77 16 3.5 9.6 0.00 0.00 0.00 94 1015.5
20260905160636 77 63 1.7 7.0 0.00 0.00 0.00 94 1015.4
20260905160129 76 25 2.6 7.8 0.00 0.00 0.00 94 1015.4
20260905155623 76 63 4.3 7.8 0.00 0.00 0.00 94 1015.4
20260905155117 76 340 2.6 7.8 0.00 0.00 0.00 95 1015.5
20260905154611 76 13 1.7 5.2 0.00 0.00 0.00 95 1015.4
20260905154105 76 75 2.6 7.0 0.00 0.00 0.00 95 1015.4
20260905153559 76 21 1.7 7.0 0.00 0.00 0.00 96 1015.4
20260905153053 75 44 1.7 6.1 0.00 0.00 0.00 96 1015.2
20260905152548 75 161 2.6 7.0 0.00 0.00 0.00 96 1015.0
20260905152041 75 32 3.5 7.8 0.00 0.00 0.00 96 1015.2
20260905151535 75 30 2.6 7.8 0.00 0.00 0.00 97 1015.0
20260905150523 74 18 1.7 7.8 0.00 0.00 0.00 97 1014.9
20260905150018 74 54 1.7 6.1 0.00 0.00 0.00 97 1014.7
20260905145512 74 82 2.6 6.1 0.00 0.00 0.00 97 1014.8
20260905143954 74 20 2.6 8.7 0.00 0.00 0.00 97 1014.5
20260905141929 74 37 3.5 7.8 0.00 0.00 0.00 97 1014.7
20260905141424 74 37 2.6 7.8 0.00 0.00 0.00 97 1014.6
20260905140917 74 25 2.6 10.4 0.00 0.00 0.00 96 1014.7
20260905140412 74 23 3.5 10.4 0.00 0.00 0.00 96 1014.7
20260905135905 74 37 2.6 9.6 0.00 0.00 0.00 96 1014.6
20260905135400 75 23 2.6 9.6 0.00 0.00 0.00 96 1014.7
20260905134854 75 42 3.5 9.6 0.00 0.00 0.00 95 1014.6
20260905134348 75 68 4.3 11.3 0.00 0.00 0.00 96 1014.5
20260905133842 75 28 4.3 11.3 0.00 0.00 0.00 96 1014.5
20260905133335 75 39 3.5 8.7 0.00 0.00 0.00 96 1014.4
20260905132830 75 46 2.6 7.8 0.00 0.00 0.00 96 1014.5
20260905132324 75 27 1.7 7.0 0.00 0.00 0.00 97 1014.5
20260905131817 75 46 1.7 5.2 0.00 0.00 0.00 97 1014.4
20260905131315 75 148 1.7 6.1 0.00 0.00 0.00 97 1014.3